Tracking 19909 objects as of 23-Oct-2019
HD Live streaming from Space Station
objects crossing your sky now

FLOCK 1C 1

Track FLOCK 1C 1 now!
10-day predictions
FLOCK 1C 1 is classified as:


NORAD ID: 40027
Int'l Code: 2014-033T
Perigee: 596.3 km
Apogee: 614.5 km
Inclination: 97.9 °
Period: 96.7 minutes
Semi major axis: 6976 km
RCS: Unknown
Launch date: June 19, 2014
Source: United States (US)
Launch site: Orenburg, Russia (OREN)
aabbcc
Your satellite tracking list
Your tracking list is empty




NASA's NSSDC Master Catalog

Two Line Element Set (TLE):
1 40027U 14033T   19295.74873146 +.00000558 +00000-0 +63939-4 0  9992
2 40027 097.9264 219.1957 0013004 008.5470 351.5967 14.89895081289635
Source of the keplerian elements: AFSPC